www.pogodaiklimat.ru

Погода и климат >> Архив погоды >> Корея >> Порён


ПОГОДА в Порёне

  • Прогноз погоды в Порёне
  • Монитор погоды в Порёне

АРХИВ ПОГОДЫ в Порёне

Время (UTC), дата Ветер
(напр.,м/с)
 
Видим.   Явления Облачность Т
(С)
Тd
(С)
f
(%)
Тe
(С)
Тes
(С)
Комфортность P
(гПа)
Po
(гПа)
Тmin
(С)
Tmax
(С)
R
(мм)
R24
(мм)
S
(см)
06 15.08 С 6 20 км 8/8 300 м
[]
+27.2 +22.3 75 +36 +37 очень
душно
991.1 990.0
09 15.08 11 км н/о +25.9 +23.3 86 +35 +36 очень
душно
990.4 989.3
12 15.08 штиль 0 20 км 4/4 600 м
[]
+25.7 +23.5 88 +35 +35 очень
душно
991.1 990.0 +29.5 0.0
15 15.08 штиль 0 16 км 5/4 300 м
[]
+25.5 +23.5 89 +35 +35 очень
душно
991.7 990.6
18 15.08 штиль 0 20 км 9/9 300 м
[]
+24.8 +23.2 91 +33 +33 очень
душно
992.2 991.1
21 15.08 штиль 0 9000 м 10/3 300 м
[]
+24.3 +23.4 95 +33 +33 очень
душно
993.4 992.3
00 16.08 10 км 8/8 300 м
[]
+26.5 +23.9 86 +37 +38 очень
душно
994.7 993.6 +24.2 0.4
03 16.08 15 км н/о +27.8 +23.6 78 +38 +41 очень
душно
995.6 994.5
06 16.08 З 1 18 км 6/6 300 м
[]
+28.4 +23.0 73 +38 +43 очень
душно
996.2 995.1
09 16.08 ЮЗ 1 18 км ясно +26.8 +22.6 78 +35 +37 очень
душно
997.2 996.1
12 16.08 штиль 0 11 км 3/0
[]
+23.9 +22.5 92 +31 +31 очень
душно
999.3 998.2 +29.3 0.0
15 16.08 13 км н/о +26.0 +22.2 80 +34 +34 очень
душно
1000.3 999.2
18 16.08 ЮЗ 2 16 км 5/5 300 м
[]
+25.5 +22.9 86 +34 +34 очень
душно
1000.5 999.4
21 16.08 Ю 2 14 км 3/1 300 м
[]
+24.4 +22.4 89 +32 +32 очень
душно
1000.4 999.3
00 17.08 Ю 12 16 км 6/6 300 м
[]
+27.0 +23.0 79 +36 +36 очень
душно
1001.3 1000.2 +24.2 0.0
03 17.08 Ю 7 6000 м 5/4 300 м
[]
+28.8 +23.6 74 +39 +42 очень
душно
1000.9 999.8
06 17.08 Ю 8 11 км 8/8 600 м
[]
+28.2 +23.1 74 +38 +38 очень
душно
1000.3 999.2
09 17.08 19 км н/о +26.4 +21.6 75 +34 +35 очень
душно
1001.3 1000.2
12 17.08 штиль 0 17 км 3/3 1500 м
[]
+23.2 +20.1 83 +30 +30 очень
душно
1003.1 1002.0 +29.3
15 17.08 штиль 0 13 км 8/0
[]
+21.8 +20.4 92 +28 +28 душно 1004.4 1003.3
18 17.08 СВ 1 11 км 5/0
[]
+21.4 +20.2 93 +27 +27 душно 1004.7 1003.6
21 17.08 В 1 11 км 5/0
[]
+20.4 +19.2 93 +25 +25 комфорт 1005.4 1004.2
00 18.08 ЮВ 1 20 км 5/0
[]
+26.0 +20.0 70 +32 +39 очень
душно
1006.6 1005.5 +20.2
03 18.08 ЮЗ 2 19 км 6/0
[]
+28.2 +16.4 49 +32 +44 душно 1006.9 1005.8
06 18.08 З 2 20 км 3/0
[]
+28.7 +17.5 51 +33 +44 очень
душно
1006.4 1005.3
09 18.08 штиль 0 20 км ясно +26.0 +17.8 61 +30 +32 душно 1006.0 1004.9
12 18.08 СВ 1 20 км ясно +22.0 +18.5 81 +27 +27 душно 1007.3 1006.2 +29.5
15 18.08 СВ 1 20 км 3/0
[]
+21.2 +18.5 85 +26 +26 душно 1008.3 1007.1
18 18.08 С 1 20 км 8/0
[]
+20.7 +18.4 87 +26 +26 душно 1008.3 1007.1
21 18.08 11 км н/о +19.9 +18.2 90 +24 +24 комфорт 1008.8 1007.6
00 19.08 С 2 15 км 6/0
[]
+23.8 +19.7 78 +29 +34 душно 1009.2 1008.1 +19.6
03 19.08 З 1 19 км 3/1 600 м
[]
+29.1 +20.2 59 +36 +53 опасность
солнечного
удара
1009.0 1007.9
06 19.08 З 1 20 км 8/8 1000 м
[]
+28.1 +21.1 66 +35 +42 очень
душно
1007.8 1006.7
09 19.08 СЗ 1 19 км 4/1 1000 м
[]
+27.7 +21.0 67 +35 +36 очень
душно
1007.8 1006.7
12 19.08 С 2 9000 м 3/0
[]
+24.8 +20.9 79 +31 +31 очень
душно
1008.6 1007.5 +30.6
15 19.08 СВ 2 14 км 1/1 1500 м
[]
+24.9 +19.4 72 +30 +30 душно 1009.2 1008.1
18 19.08 СВ 2 10 км 1/0
[]
+23.5 +20.0 81 +29 +29 душно 1008.9 1007.8
21 19.08 СВ 1 7000 м 1/1 2000 м
[]
+23.1 +20.6 86 +30 +30 очень
душно
1009.2 1008.1
00 20.08 С 1 8000 м 5/0
[]
+27.1 +21.3 71 +34 +41 очень
душно
1008.7 1007.6 +22.4
03 20.08 СВ 1 8000 м 5/4 600 м
[]
+29.9 +22.5 65 +39 +51 опасность
солнечного
удара
1009.0 1007.9
06 20.08 З 1 9000 м 8/8 1000 м
[]
+31.0 +22.5 61 +41 +47 опасность
перегрева
1007.7 1006.6
09 20.08 штиль 0 8000 м 6/0
[]
+27.8 +21.5 69 +36 +37 очень
душно
1007.2 1006.1
12 20.08 штиль 0 4800 м 8/0 2000 м
[]
+25.6 +22.8 85 +34 +34 очень
душно
1008.0 1006.9 +31.9
15 20.08 штиль 0 3900 м 6/0
[]
+24.4 +22.8 91 +32 +32 очень
душно
1007.7 1006.6
18 20.08 штиль 0 3700 м 6/6 1000 м
[]
+23.8 +22.4 92 +31 +31 очень
душно
1007.6 1006.5
21 20.08 штиль 0 3000 м 3/0
[]
+23.5 +22.1 92 +30 +30 очень
душно
1007.8 1006.7
00 21.08 Ю 1 6000 м 5/0
[]
+27.3 +22.4 75 +36 +43 очень
душно
1008.4 1007.3 +23.2
03 21.08 С 2 6000 м 8/4 1000 м
[]
+30.0 +22.9 66 +40 +47 очень
душно
1007.8 1006.7
06 21.08 З 1 9000 м 8/0 2000 м
[]
+30.7 +21.1 57 +38 +47 очень
душно
1006.8 1005.7
09 21.08 7000 м н/о +27.7 +22.4 73 +36 +37 очень
душно
1006.7 1005.6
12 21.08 штиль 0 5000 м 9/0 2000 м
[]
+26.3 +22.7 81 +35 +35 очень
душно
1007.1 1006.0 +31.4
15 21.08 3500 м н/о +26.2 +22.6 81 +35 +35 очень
душно
1006.9 1005.8
18 21.08 штиль 0 900 м 5/5 200 м
[]
+24.6 +23.7 95 +33 +33 очень
душно
1006.0 1004.9 3
21 21.08 1700 м н/о +23.9 +22.8 94 +32 +32 очень
душно
1005.4 1004.3
00 22.08 С 5 2100 м 3/0
[]
+26.8 +23.2 81 +36 +40 очень
душно
1005.8 1004.7 +23.7 4

 

Местоположение метеостанции Порён (Корея): широта 36.33 долгота 126.55 высота над уровнем моря 19 м.

В архиве по умолчанию представлена погода в Порёне за последнюю неделю. Архивные данные за месяц целиком и за предыдущие месяцы, начиная с января 2011 года, Вы можете получить, выбрав интересующий диапазон дат из раскрывающегося списка и нажав кнопку "Ввод!".


*Определитесь, кто Вы:
робот инопланетянин человек

Внимание! Время в таблицах - всемирное. Для получения местного времени необходимо прибавить поправку, которая равна 9 ч.

Смотрите также архив погоды в соседних городах и на ближайших метеорологических станциях:

Погода в Хонсоне (Корея) (39 км)
Погода в Кунсане (Корея) (41 км)
Погода в Сосане (Корея) (49 км)
Погода в Чхонане (Корея) (71 км)
Погода в Тэджоне (Корея) (73 км)
Погода в Чонджу (Корея) (78 км)
Погода на Базе Camp Humphreys (Корея) (81 км)
Погода в Чхонджу (Корея) (87 км)
Погода в Чоныпе (Корея) (91 км)
Погода в Кочхане (Корея) (101 км)

Пояснения к столбцам:

Ветер - указаны скорость ветра в м/с - средняя за 10 мин, порывы в срок и между сроками (в фигурных скобках) и направление, откуда дует ветер: С - северный, СВ - северо-восточный, В - восточный, ЮВ - юго-восточный, Ю - южный, ЮЗ - юго-западный, З - западный, СЗ - северо-западный.
Видимость - горизонтальная дальность видимости в метрах или километрах. При видимости от 1 до 10 км при отсутствии осадков обычно наблюдается дымка, при ухудшении видимости до 1 км и менее - туман. В сухую погоду видимость может ухудшаться дымом, пылью или мглою.
Явления - указаны атмосферные явления, наблюдавшиеся в срок или в последний час перед сроком; фигурными скобками обозначены явления, наблюдавшиеся между сроками (за 1-3 часа до срока); квадратными скобками обозначены град или гололедные отложения с указанием их диаметра в мм.
Облачность - указаны через наклонную черту общая и нижняя облачность в баллах и высота нижней границы облаков в метрах; квадратными скобками обозначены формы облаков: Ci - перистые, Cs - перисто-слоистые, Cc - перисто-кучевые, Ac - высококучевые, As - высокослоистые, Sc - слоисто-кучевые, Ns - слоисто-дождевые, Cu - кучевые, Cb - кучево-дождевые. Подробнее классификацию облаков см. в Атласе облаков (PDF).
T - Температура воздуха - температура, измеренная на высоте 2 м над землей.
Td - Температура точки росы - температура, при понижении до которой содержащийся в воздухе водяной пар достигнет насыщения.
f - Относительная влажность воздуха - влажноcть воздуха, измеренная на высоте 2 м над землей.
Te - Эффективная температура - температура, которую ощущает одетый по сезону человек в тени. Характеристика душности погоды. При расчете учитывается влияние влажности воздуха и скорости ветра на теплоощущения человека.
Tes - Эффективная температура на солнце - температура, которую ощущает человек, с поправкой на солнечный нагрев. Характеристика знойности погоды. Зависит от высоты солнца над горизонтом, облачности и скорости ветра. Ночью, в пасмурную погоду, а также при ветре 12 м/с и более поправка равна нулю.
P - Атмосферное давление - приведенное к уровню моря атмосферное давление.
Po - Атмосферное давление - измеренное на уровне метеостанции атмосферное давление.
Tmin - Минимальная температура - минимум температуры воздуха на высоте 2 м над землей.
Tmax - Максимальная температура - максимум температуры воздуха на высоте 2 м над землей.
R - Количество осадков - Количество выпавших осадков за период времени, мм. При наведении курсора мыши на число - период времени, за который выпало указанное количество осадков.
R24 - Количество осадков - Количество выпавших осадков за 24 часа, мм.
S - Снежный покров - Высота снежного покрова, см. При наведении курсора мыши на число - состояние снежного покрова и степень покрытия местности в баллах.